Location: Del Oro Observatory
(38.3044°N, 104.8119°W)
Time: 02:18:19
(UTC-07:00)

Iridium 35 - Visible Passes

Search period start: 24 November 2014 00:00
Search period end: 04 December 2014 00:00
Orbit: 776 x 779 km, 86.4° (Epoch: 23 November)

Date Brightness Start Highest point End Pass type
(mag) Time Alt. Az. Time Alt. Az. Time Alt. Az.
24 Nov 6.9 19:25:59 10° SSW 19:27:46 22° SSW 19:27:46 22° SSW visible
25 Nov 6.9 05:57:48 10° NNE 06:02:28 32° E 06:07:06 10° SE visible
25 Nov 5.8 18:52:25 10° S 18:55:37 39° SSE 18:55:37 39° SSE visible
26 Nov 7.8 05:25:14 10° NE 05:28:42 18° ENE 05:32:08 10° ESE visible
26 Nov 5.5 18:19:25 10° SSE 18:23:32 36° ESE 18:23:32 36° ESE visible
26 Nov 7.3 20:01:00 10° SW 20:04:06 21° W 20:04:06 21° W visible
27 Nov 6.2 17:47:08 10° SE 17:50:54 21° E 17:51:32 20° ENE visible
27 Nov 6.2 19:26:23 10° SSW 19:31:16 41° W 19:32:07 38° WNW visible
28 Nov 6.1 05:57:37 10° N 06:02:39 47° E 06:07:39 10° SSE visible
28 Nov 6.8 17:16:41 10° E 17:17:44 11° ENE 17:18:47 10° ENE visible
28 Nov 5.1 18:52:28 10° S 18:57:40 78° W 19:00:13 31° N visible
29 Nov 7.3 05:24:40 10° NNE 05:28:58 26° E 05:33:14 10° SE visible
29 Nov 5.0 18:19:07 10° SSE 18:24:11 56° E 18:28:25 15° NNE visible
29 Nov 7.7 20:02:18 10° WSW 20:05:16 15° WNW 20:08:16 10° NW visible
30 Nov 7.9 04:52:31 10° NE 04:55:08 14° ENE 04:57:43 10° ESE visible
30 Nov 5.8 17:46:22 10° SE 17:50:50 30° E 17:55:18 10° NNE visible
30 Nov 6.9 19:27:02 10° SW 19:31:28 28° W 19:35:55 10° NNW visible
01 Dec 5.4 05:57:35 10° N 06:02:47 70° E 06:07:58 10° S visible
01 Dec 6.5 17:14:30 10° ESE 17:17:35 16° E 17:20:41 10° NE visible
01 Dec 5.7 18:52:44 10° SSW 18:57:47 52° W 19:02:53 10° N visible
02 Dec 6.6 05:24:21 10° NNE 05:29:10 37° E 05:33:57 10° SSE visible
02 Dec 4.9 18:19:03 10° S 18:24:14 83° E 18:29:28 10° N visible
03 Dec 7.5 04:51:37 10° NNE 04:55:25 20° ENE 04:59:12 10° SE visible
03 Dec 5.3 17:45:55 10° SSE 17:50:48 43° E 17:55:43 10° NNE visible
03 Dec 7.5 19:28:01 10° WSW 19:31:42 20° WNW 19:35:26 10° NNW visible
